This is the latest recevied weather packets stored in our database for station/object W5COG. If no packets are shown the sender has not sent any weather packets the latest 1 day(s).
| Time | Temp. | Humidity | Pressure | Rain* | Wind** | Luminosity | Snow |
|---|---|---|---|---|---|---|---|
| 1777983627 | 18.33° C | 80% | 1002.4 hPa | 0 mm | 3.58 m/s, 88° | 24 W/m² | - |
| 1777983327 | 18.33° C | 80% | 1002.2 hPa | 0 mm | 3.58 m/s, 96° | 25 W/m² | - |
| 1777983028 | 18.33° C | 80% | 1002.1 hPa | 0 mm | 4.02 m/s, 98° | 24 W/m² | - |
| 1777982728 | 18.33° C | 80% | 1002.1 hPa | 0 mm | 3.58 m/s, 93° | 12 W/m² | - |
| 1777982427 | 18.33° C | 80% | 1002.1 hPa | 0 mm | 3.13 m/s, 101° | 12 W/m² | - |
| 1777982128 | 18.33° C | 80% | 1002.1 hPa | 0 mm | 3.13 m/s, 92° | 9 W/m² | - |
| 1777981828 | 18.33° C | 80% | 1002.2 hPa | 0 mm | 3.13 m/s, 87° | 6 W/m² | - |
| 1777981528 | 18.33° C | 79% | 1002.2 hPa | 0 mm | 3.13 m/s, 82° | 4 W/m² | - |
| 1777981228 | 18.33° C | 80% | 1002.1 hPa | 0 mm | 2.68 m/s, 94° | 2 W/m² | - |
| 1777980927 | 18.33° C | 80% | 1002.1 hPa | 0 mm | 3.13 m/s, 84° | 0 W/m² | - |
| 1777980627 | 18.33° C | 80% | 1002.1 hPa | 0 mm | 3.13 m/s, 82° | 0 W/m² | - |
| 1777980327 | 18.33° C | 80% | 1002.1 hPa | 0 mm | 3.13 m/s, 88° | 0 W/m² | - |
| 1777979427 | 18.33° C | 80% | 1001.9 hPa | 0 mm | 2.68 m/s, 73° | 0 W/m² | - |
| 1777979128 | 18.33° C | 80% | 1002 hPa | 0 mm | 2.68 m/s, 82° | 0 W/m² | - |
| 1777978827 | 18.33° C | 80% | 1002.1 hPa | 0 mm | 2.24 m/s, 68° | 0 W/m² | - |
| 1777978527 | 18.33° C | 80% | 1002.1 hPa | 0 mm | 1.34 m/s, 68° | 0 W/m² | - |
| 1777978228 | 18.33° C | 80% | 1002.1 hPa | 0 mm | 1.79 m/s, 39° | 0 W/m² | - |
| 1777977927 | 18.33° C | 79% | 1002.1 hPa | 0 mm | 2.24 m/s, 57° | 0 W/m² | - |
| 1777977627 | 18.33° C | 79% | 1001.9 hPa | 0 mm | 1.34 m/s, 65° | 0 W/m² | - |
| 1777977327 | 18.33° C | 79% | 1001.8 hPa | 0 mm | 1.34 m/s, 56° | 0 W/m² | - |
| 1777977027 | 18.33° C | 78% | 1001.7 hPa | 0 mm | 2.24 m/s, 38° | 0 W/m² | - |
| 1777976727 | 18.89° C | 78% | 1001.6 hPa | 0 mm | 1.79 m/s, 51° | 0 W/m² | - |
| 1777976427 | 18.89° C | 77% | 1001.4 hPa | 0 mm | 1.79 m/s, 64° | 0 W/m² | - |
| 1777976128 | 18.89° C | 77% | 1001.4 hPa | 0 mm | 2.24 m/s, 68° | 0 W/m² | - |
| 1777975827 | 18.89° C | 77% | 1001.3 hPa | 0 mm | 2.24 m/s, 77° | 0 W/m² | - |
* Rain latest hour (hover to see other rain measurements)
** Current wind speed in m/s (hover to see current wind gust speed)